Welcome to the New NWS' Forecast!
Most changes are behind the scenes, but click here for differences you might notice.

Regional Weather Roundup (RWR)

Issued by Gray - Portland, ME (GYX)

                            
747 
ASUS41 KGYX 151910
RWRGYX
WEATHER ROUNDUP FOR MAINE AND NEW HAMPSHIRE
NATIONAL WEATHER SERVICE GRAY ME
300 PM EDT SUN JUL 15 2018

MEZ002-005-006-010-012-015-018-020-021-024-026-027-029-152000-
MAINE
  
CITY           SKY/WX    TMP DP  RH WIND       PRES   REMARKS
PORTLAND       CLOUDY    71  66  84 E6G16     29.98S                  
SANFORD        LGT RAIN  74  68  81 VRB3      29.97S                  
BAR HARBOR     CLOUDY    69  61  75 S7        29.98R                  
WISCASSET      FAIR      75  66  73 SW7       29.98S                  
ROCKLAND       FAIR      69  63  81 S9        29.97S                  
FRYEBURG       PTSUNNY   80  68  66 SE12G20   29.95S                  
LEWISTONAUBURN FAIR      75  66  73 VRB5      29.97F                  
AUGUSTA        FAIR      75  65  70 VRB6      29.96F                  
WATERVILLE     PTSUNNY   75  65  70 W7        29.94R                  
BANGOR         CLOUDY    74  65  73 S8        29.96S                  
GREENVILLE       N/A     72  60  66 VRB6      29.96F                  
MILLINOCKET    FAIR      75  62  64 W5        29.95F                  
HOULTON        CLOUDY    75  65  70 SW7       29.91F                  
PRESQUE ISLE   PTSUNNY   74  62  66 S3        29.94F                  
FRENCHVILLE    FAIR      74  62  66 SE5       29.94S                  
CARIBOU        FAIR      74  61  63 CALM      29.93F                  
$$

NHZ002-005-008-009-011-012-014-152000-
NEW HAMPSHIRE
  
CITY           SKY/WX    TMP DP  RH WIND       PRES   REMARKS
PORTSMOUTH     PTSUNNY   76  67  73 E6        29.95S                  
ROCHESTER      FAIR      74  68  81 E6        29.96F                  
NASHUA         FAIR      86  69  56 E5        29.93F HX  90           
MANCHESTER     FAIR      83  69  62 E7        29.92F                  
CONCORD        FAIR      86  65  49 S7        29.93F                  
LACONIA        FAIR      80  65  59 SE3       29.95S                  
PLYMOUTH       FAIR      88  61  39 W3        29.92S                  
BERLIN         FAIR      85  64  49 N7        29.95F                  
WHITEFIELD     FAIR      85  63  47 SW6       29.95F                  
JAFFREY        FAIR      86  64  47 SE5       29.97F                  
KEENE          FAIR      94  65  38 CALM      29.93F HX  96           
LEBANON        PTSUNNY   76  67  73 SE8       29.94R                  
MT WASHINGTON  PTSUNNY   57  52  82 NW12G24     N/A                   
$$

VTZ005-007-008-152000-
VERMONT
  
CITY           SKY/WX    TMP DP  RH WIND       PRES   REMARKS
ST JOHNSBURY     N/A     84  63  49 MISG      29.92F                  
MONTPELIER     PTSUNNY   82  62  50 NW6       30.01S                  
BURLINGTON     FAIR      88  59  37 N9        29.94S                  
$$

MAZ007-012-024-CTZ003-RIZ002-NYZ038-NYZ072-152000-
SOUTHERN NEW ENGLAND AND NY
  
CITY           SKY/WX    TMP DP  RH WIND       PRES   REMARKS
BOSTON         PTSUNNY   75  67  76 SE12      29.96S                  
WORCESTER      CLOUDY    81  68  65 NE5       29.97F                  
NANTUCKET      FAIR      69  66  90 SE6       29.98S                  
PROVIDENCE     PTSUNNY   85  70  60 SE9       29.95S                  
HARTFORD       PTSUNNY   86  70  58 VRB5      29.93F HX  90           
ALBANY         PTSUNNY   92  63  38 VRB3      29.93F HX  93           
NEW YORK CITY  PTSUNNY   81  66  60 W10       29.97F                  
$$

ANZ081-ANZ082-ANZ150-NHZ014-MEZ023>029-152000-
COASTAL MARINE OBSERVATIONS
  
STATION/POSITION TIME  TEMP    WIND        PRES    WAVE
                       AIR SEA DIR/SP/G            HT/PER
                 (UTC) (F)     (DEG/KT/KT) (MB)    (FT/S)
MOUNT DESERT ROC 1900   65     160/  9/ 10 1015.1F
MATINICUS ROCK   1800   65     140/  6/  7 1015.3F
ISLE OF SHOALS   1800   67     100/  7/  7 1014.5F
JEFFREYS LEDGE   1836      68                N/A     2/11
$$

.............KEY..............
   WCI - WIND CHILL
   TC  - TEMPERATURE IN CELSIUS
   VSB - VISIBILITY IN MILES
   HX  - HEAT INDEX
   FAIR- INDICATES FEW OR NO CLOUDS BELOW 12,000 FT, WITH NO 
         SIGNIFICANT WEATHER AND/OR OBSTRUCTIONS TO VISIBILITY.